Tracking 31027 objects as of 19-Jul-2025
HD Live streaming from Space Station
objects crossing your sky now

STARLINK-4659

Track STARLINK-4659 now!
10-day predictions
STARLINK-4659 is classified as:


NORAD ID: 54841
Int'l Code: 2022-177X
Perigee: 565.4 km
Apogee: 567.1 km
Inclination: 43.0 °
Period: 95.8 minutes
Semi major axis: 6937 km
RCS: Unknown
Launch date: December 28, 2022
Source: United States (US)
Launch site: AIR FORCE EASTERN TEST RANGE (AFETR)
Your satellite tracking list
FENGYUN 1C DEB
Track 1 satellite(s)




NASA's NSSDC Master Catalog

Two Line Element Set (TLE):
1 54841U 22177X   25199.72410480 -.00000810  00000-0 -44865-4 0  9995
2 54841  43.0041 324.3964 0001236 272.1788  87.8912 15.02538256140786
Source of the keplerian elements: AFSPC